Change the Weather History Date:

Wednesday, July 17, 2013

  Actual Average Record
Temperature  
Mean Temperature 72 °F 61 °F  
Max Temperature 87 °F 79 °F 92 °F (1951)
Min Temperature 56 °F 44 °F 22 °F (1986)
Degree Days  
Heating Degree Days 0 4  
Month to date heating degree days 11 99  
Since 1 June heating degree days 274 466  
Since 1 July heating degree days 11 99  
Cooling Degree Days 7 1  
Month to date cooling degree days 56 2  
Year to date cooling degree days 78 3  
Since 1 June cooling degree days 78 3  
Growing Degree Days 22 (Base 50)    
Moisture  
Dew Point 43 °F    
Average Humidity 45    
Maximum Humidity 80    
Minimum Humidity 10    
Precipitation  
Precipitation 0.00 in 0.02 in 0.19 in (1987)
Month to date precipitation T 0.48  
Year to date precipitation 11.25 12.12  
Sea Level Pressure  
Sea Level Pressure 29.99 in    
Wind  
Wind Speed 6 mph (SSW)    
Max Wind Speed 16 mph    
Max Gust Speed 21 mph    
Visibility 10 miles    
Events      
T = Trace of Precipitation, MM = Missing Value Source: NWS Daily Summary

Daily Weather History Graph

Daily Weather History Graph

Search for Another Location

Airport or City:

Trip Planner

Search our weather history database for the weather conditions in past years. The results will help you decide how hot, cold, wet, or windy it might be!

Date:

Astronomy

Jul. 17, 2013 Rise Set
Actual Time 6:14 AM MDT 9:26 PM MDT
Civil Twilight 5:39 AM MDT 10:01 PM MDT
Nautical Twilight 4:53 AM MDT 10:47 PM MDT
Astronomical Twilight 3:56 AM MDT 11:43 PM MDT
Moon 4:16 PM MDT (7/17) 1:29 AM MDT (7/17)
Length of Visible Light 16h 22m
Length of Day
15h 11m
Waxing Gibbous, 68% of the Moon is Illuminated
Jul 17
Waxing Gibbous
Jul 22
Full
Jul 29
Last Quarter
Aug 6
New
Aug 14
First Quarter

Hourly Weather History & Observations

Time (MDT) Temp. Dew Point Humidity Pressure Visibility Wind Dir Wind Speed Gust Speed Precip Events Conditions
12:51 AM 66.0 °F 50.0 °F 56% 29.88 in 10.0 mi Calm Calm - N/A   Clear
1:51 AM 64.0 °F 50.0 °F 60% 29.88 in 10.0 mi Variable 4.6 mph - N/A   Clear
2:51 AM 62.1 °F 51.1 °F 67% 29.88 in 10.0 mi Calm Calm - N/A   Clear
3:51 AM 60.1 °F 51.1 °F 72% 29.91 in 10.0 mi ENE 3.5 mph - N/A   Clear
4:51 AM 57.9 °F 51.1 °F 78% 29.91 in 10.0 mi Calm Calm - N/A   Clear
5:51 AM 57.9 °F 51.1 °F 78% 29.95 in 10.0 mi Calm Calm - N/A   Clear
6:51 AM 57.9 °F 51.1 °F 78% 29.98 in 10.0 mi Calm Calm - N/A   Clear
7:51 AM 60.1 °F 52.0 °F 75% 30.01 in 10.0 mi Calm Calm - N/A   Clear
8:51 AM 68.0 °F 53.1 °F 59% 30.01 in 10.0 mi Calm Calm - N/A   Clear
9:51 AM 69.1 °F 54.0 °F 58% 30.02 in 10.0 mi Calm Calm - N/A   Clear
10:51 AM 77.0 °F 52.0 °F 42% 30.01 in 6.0 mi South 11.5 mph - N/A   Haze
11:51 AM 79.0 °F 50.0 °F 36% 30.02 in 10.0 mi SSE 13.8 mph - N/A   Clear
12:51 PM 81.0 °F 48.9 °F 33% 30.02 in 10.0 mi South 13.8 mph 20.7 mph N/A   Clear
1:51 PM 84.0 °F 39.9 °F 21% 30.02 in 10.0 mi South 15.0 mph - N/A   Clear
2:51 PM 82.9 °F 36.0 °F 19% 30.03 in 10.0 mi South 10.4 mph 19.6 mph N/A   Clear
3:51 PM 84.9 °F 33.1 °F 16% 30.02 in 10.0 mi SW 9.2 mph - N/A   Clear
4:51 PM 86.0 °F 25.0 °F 11% 30.02 in 10.0 mi SW 9.2 mph 20.7 mph N/A   Clear
5:51 PM 84.0 °F 23.0 °F 11% 30.01 in 10.0 mi SSW 6.9 mph - N/A   Clear
6:51 PM 84.0 °F 26.1 °F 12% 30.00 in 10.0 mi SW 6.9 mph - N/A   Clear
7:51 PM 82.0 °F 28.9 °F 14% 30.00 in 10.0 mi SE 5.8 mph - N/A   Clear
8:51 PM 79.0 °F 33.1 °F 19% 30.00 in 10.0 mi WNW 5.8 mph - N/A   Clear
9:51 PM 73.0 °F 34.0 °F 24% 30.03 in 10.0 mi North 6.9 mph - N/A   Clear
10:51 PM 72.0 °F 46.9 °F 41% 30.04 in 10.0 mi North 10.4 mph - N/A   Clear
11:51 PM 70.0 °F 45.0 °F 41% 30.06 in 10.0 mi North 5.8 mph - N/A   Clear